Williamsport, PA

5:16 PM EDT on April 28, 2017 (GMT -0400)
Williamsport Rgnl

Weather History for KIPT - December, 2012

Change the Weather History Date:

Thursday, December 27, 2012

  Actual Average Record
Temperature  
Mean Temperature 30 °F 28 °F  
Max Temperature 32 °F 35 °F 54 °F (2016)
Min Temperature 28 °F 21 °F -11 °F (1950)
Degree Days  
Heating Degree Days 35 37  
Month to date heating degree days 722 899  
Since 1 July heating degree days 1902 2144  
Cooling Degree Days 0 0  
Month to date cooling degree days 0 0  
Year to date cooling degree days 951 702  
Moisture  
Dew Point 24 °F    
Average Humidity 82    
Maximum Humidity 100    
Minimum Humidity 63    
Precipitation  
Precipitation 0.16 in 0.08 in 1.22 in (1904)
Month to date precipitation 5.15 2.63  
Year to date precipitation 35.78 40.98  
Snow  
Snow 1.60 in 0.20 in 5.00 in (1984)
Month to date snowfall 8.8 5.8  
Since 1 July snowfall 10.6 7.6  
Snow Depth 8.00 in    
Sea Level Pressure  
Sea Level Pressure 29.72 in    
Wind  
Wind Speed 13 mph (WNW)    
Max Wind Speed 24 mph    
Max Gust Speed 31 mph    
Visibility 8 miles    
Events Snow    
T = Trace of Precipitation, MM = Missing Value Source: NWS Daily Summary

Daily Weather History Graph

Daily Weather History Graph

Search for Another Location

Airport or City:

Trip Planner

Search our weather history database for the weather conditions in past years. The results will help you decide how hot, cold, wet, or windy it might be!

Date:

Astronomy

Dec. 27, 2012 Rise Set
Actual Time 7:32 AM EST 4:45 PM EST
Civil Twilight 7:01 AM EST 5:16 PM EST
Nautical Twilight 6:26 AM EST 5:51 PM EST
Astronomical Twilight 5:52 AM EST 6:25 PM EST
Moon 4:27 PM EST (12/27) 6:41 AM EST (12/27)
Length of Visible Light 10h 15m
Length of Day
9h 13m
Full, 100% of the Moon is Illuminated
Dec 27
Full
Dec 28
Full
Jan 4
Last Quarter
Jan 11
New
Jan 18
First Quarter

Hourly Weather History & Observations

Time (EST) Temp. Windchill Dew Point Humidity Pressure Visibility Wind Dir Wind Speed Gust Speed Precip Events Conditions
12:54 AM 30.9 °F 22.2 °F 28.9 °F 92% 29.55 in 10.0 mi West 10.4 mph - 0.01 in   Overcast
1:47 AM 30.2 °F 20.8 °F 28.4 °F 93% 29.54 in 4.0 mi WNW 11.5 mph - 0.01 in Snow Light Snow
1:54 AM 30.9 °F 19.8 °F 28.9 °F 92% 29.56 in 4.0 mi West 16.1 mph - 0.01 in Snow Light Snow
2:12 AM 30.2 °F 20.2 °F 28.4 °F 93% 29.55 in 2.5 mi West 12.7 mph - 0.01 in Snow Light Snow
2:22 AM 30.2 °F 20.8 °F 28.4 °F 93% 29.55 in 3.0 mi West 11.5 mph - 0.03 in Snow Light Snow
2:54 AM 30.0 °F 20.0 °F 28.9 °F 96% 29.58 in 3.0 mi West 12.7 mph - 0.04 in Snow Light Snow
3:03 AM 30.2 °F 19.8 °F 28.4 °F 93% 29.56 in 1.8 mi WSW 13.8 mph - 0.01 in Snow Light Snow
3:41 AM 28.4 °F 19.1 °F 28.4 °F 100% 29.56 in 1.5 mi West 10.4 mph - 0.04 in Snow Light Snow
3:54 AM 28.9 °F 19.2 °F 28.0 °F 96% 29.59 in 1.5 mi West 11.5 mph - 0.05 in Snow Light Snow
4:01 AM 28.4 °F 19.1 °F 28.4 °F 100% 29.57 in 1.5 mi West 10.4 mph - 0.00 in Snow Light Snow
4:13 AM 28.4 °F 19.7 °F 28.4 °F 100% 29.57 in 1.2 mi West 9.2 mph - 0.01 in Snow Light Snow
4:54 AM 28.0 °F 19.3 °F 27.0 °F 96% 29.60 in 1.2 mi West 9.2 mph - 0.04 in Snow Light Snow
5:08 AM 28.4 °F 19.7 °F 26.6 °F 93% 29.58 in 2.5 mi West 9.2 mph - 0.00 in Snow Light Snow
5:36 AM 28.4 °F 19.1 °F 26.6 °F 93% 29.59 in 3.0 mi West 10.4 mph - 0.01 in Snow Light Snow
5:54 AM 28.0 °F 20.0 °F 26.1 °F 92% 29.61 in 5.0 mi West 8.1 mph - 0.01 in Snow Light Snow
6:54 AM 28.0 °F 20.0 °F 25.0 °F 88% 29.63 in 10.0 mi West 8.1 mph - 0.00 in   Overcast
7:54 AM 28.9 °F 20.4 °F 24.1 °F 82% 29.65 in 10.0 mi West 9.2 mph - N/A   Overcast
8:01 AM 28.4 °F 19.1 °F 24.8 °F 86% 29.63 in 10.0 mi West 10.4 mph - N/A   Overcast
8:54 AM 30.0 °F 20.5 °F 23.0 °F 75% 29.67 in 10.0 mi West 11.5 mph - N/A   Overcast
9:54 AM 30.0 °F 19.5 °F 23.0 °F 75% 29.71 in 10.0 mi WNW 13.8 mph - N/A   Overcast
10:54 AM 30.9 °F 22.2 °F 23.0 °F 72% 29.73 in 10.0 mi West 10.4 mph - N/A   Overcast
11:54 AM 30.9 °F 19.8 °F 23.0 °F 72% 29.75 in 10.0 mi WNW 16.1 mph 25.3 mph N/A   Overcast
12:54 PM 32.0 °F 21.6 °F 21.9 °F 66% 29.74 in 10.0 mi WNW 15.0 mph - N/A   Overcast
1:41 PM 32.0 °F 20.5 °F 21.2 °F 64% 29.73 in 10.0 mi WNW 18.4 mph 26.5 mph N/A   Overcast
1:54 PM 32.0 °F 23.0 °F 21.0 °F 64% 29.75 in 10.0 mi NW 11.5 mph 24.2 mph N/A   Overcast
2:54 PM 30.9 °F 20.7 °F 21.0 °F 67% 29.77 in 10.0 mi WNW 13.8 mph 25.3 mph N/A   Overcast
3:54 PM 30.9 °F 18.4 °F 21.0 °F 67% 29.80 in 10.0 mi West 20.7 mph 26.5 mph N/A   Overcast
4:54 PM 30.9 °F 21.7 °F 19.9 °F 64% 29.84 in 10.0 mi WNW 11.5 mph - N/A   Overcast
5:37 PM 30.2 °F 21.3 °F 21.2 °F 69% 29.84 in 10.0 mi NW 10.4 mph - N/A   Overcast
5:54 PM 30.9 °F 20.7 °F 21.0 °F 67% 29.87 in 10.0 mi WNW 13.8 mph 19.6 mph N/A   Overcast
6:23 PM 30.2 °F 20.8 °F 21.2 °F 69% 29.86 in 10.0 mi NW 11.5 mph 23.0 mph N/A   Overcast
6:54 PM 30.9 °F 20.2 °F 21.0 °F 67% 29.89 in 10.0 mi WNW 15.0 mph 21.9 mph N/A   Overcast
7:54 PM 30.0 °F 20.0 °F 19.9 °F 66% 29.93 in 10.0 mi WNW 12.7 mph 25.3 mph N/A   Overcast
8:14 PM 30.2 °F 20.2 °F 19.4 °F 64% 29.91 in 10.0 mi West 12.7 mph - N/A   Overcast
8:54 PM 30.0 °F 20.0 °F 21.0 °F 69% 29.95 in 10.0 mi WNW 12.7 mph - N/A   Overcast
9:54 PM 30.0 °F 21.1 °F 21.0 °F 69% 29.97 in 10.0 mi WNW 10.4 mph 21.9 mph N/A   Overcast
10:54 PM 30.9 °F 21.7 °F 21.0 °F 67% 29.98 in 10.0 mi WNW 11.5 mph - N/A   Overcast
11:28 PM 30.2 °F 19.3 °F 21.2 °F 69% 29.95 in 10.0 mi WNW 15.0 mph - N/A   Overcast
11:54 PM 30.9 °F 19.1 °F 21.9 °F 69% 29.97 in 10.0 mi WNW 18.4 mph 24.2 mph N/A   Overcast